Location: Harwich
(41.7160°N, 69.9939°W)
Time: 14:39:16
(UTC+01:00)

A-11 Canister half - Pass Details

Date: 29 November 2023
Orbit: 1526 x 1682 km, 47.3° (Epoch: 01 March)

Event Time Altitude Azimuth Distance (km) Brightness Sun altitude
Rises 05:36:55 0° 280° (W) 4,917 - -69.6°
Reaches altitude 10° 05:40:10 10° 283° (WNW) 3,916 - -69.6°
Maximum altitude 05:50:08 64° 5° (N) 1,772 - -69.2°
Drops below altitude 10° 05:59:46 10° 86° (E) 3,798 - -68.6°
Sets 06:02:52 0° 90° (E) 4,761 - -68.4°
